User: anonymous   Login
Location: Boissi�res
(45.2500°N, 2.3667°E)
Time: 21:51:07
(UTC+00:00)
Language:

COSMOS 2251 DEB - Orbit

View from above orbital plane
View from above orbital plane
View from above satellite
View from above satellite

Ground track
Ground track

The orbit data is extracted from the following two-line orbital elements,

1 33911U 93036DQ  22021.89594932  .00001582  00000-0  45654-3 0  9997
2 33911  74.1046 324.9092 0026157 294.1373 121.3874 14.45268509679686
Epoch (UTC): 21 January 2022 21:30:10
Eccentricity: 0.0026157
inclination: 74.1046°
perigee height: 722 km
apogee height: 760 km
right ascension of ascending node: 324.9092°
argument of perigee: 294.1373°
revolutions per day: 14.45268509
mean anomaly at epoch: 121.3874°
orbit number at epoch: 67968

The dashed part of the orbit path shows where the satellite is in the earth's shadow,  

DLR